カタログに戻る

STARLINK-34253

運用中通信VLEO
NORAD 64685·PAYLOAD·🇺🇸 United States

打ち上げ Jun 28, 2025 から Cape Canaveral Space Force Station

Loading…

次のパス (今後24時間)

TLE

最新Source: CelesTrak SupGP

元期: Sep 15, 2026, 02:24 UTC

1 64685C 25139X   26258.10048611  .00057029  00000+0  16846-2 0  2580
2 64685  53.1592 323.2797 0001212  95.5722 119.4083 15.34368247    15

AllMySatでSTARLINK-34253をリアルタイム追跡

Download on the App Store